User: anonymous   Login
Location: Camoruquito
(9.9001°N, 67.3564°W)
Time: 15:03:20
(UTC+00:00)
Language:

PAYLOAD B - Orbit

View from above orbital plane
View from above orbital plane
View from above satellite
View from above satellite

Ground track
Ground track

The orbit data is extracted from the following two-line orbital elements,

1 27431U 02024B   24174.48930558  .00000060  00000-0  59337-4 0  9992
2 27431  99.0535 213.0690 0016400 117.2845 242.9997 14.09990129137412
Epoch (UTC): 22 June 2024 11:44:36
Eccentricity: 0.0016400
inclination: 99.0535°
perigee height: 847 km
apogee height: 871 km
right ascension of ascending node: 213.0690°
argument of perigee: 117.2845°
revolutions per day: 14.09990129
mean anomaly at epoch: 242.9997°
orbit number at epoch: 13741

The dashed part of the orbit path shows where the satellite is in the earth's shadow,  

DLR